#WRAP "#DESNH" "iau/Ephemerides/Comets"

P/2004 FY140 (LINEAR)

Orbital Elements

The following orbital elements are taken from MPC 54823:
P/2004 FY140 (LINEAR)
Epoch 2004 Aug. 23.0 TT = JDT 2453240.5
T 2004 Aug. 7.0914 TT                                   MPC
q   4.106083             (2000.0)            P               Q
n   0.0895820      Peri.  239.7903      -0.8901943      +0.4551389
a   4.946776       Node   327.2715      -0.4041906      -0.8093360
e   0.169948       Incl.    2.1272      -0.2102001      -0.3712464
P  11.0
From 52 observations 2004 Mar. 27-July 12, mean residual 0".4.
Elements are also available for the current standard epoch:
P/2004 FY140 (LINEAR)
Epoch 2009 June 18.0 TT = JDT 2455000.5
T 2004 Aug. 2.1722 TT                                   MPC
q   4.111369             (2000.0)            P               Q
n   0.0898989      Peri.  239.5776      -0.8925872      +0.4504260
a   4.935142       Node   327.1813      -0.3998976      -0.8114845
e   0.166920       Incl.    2.1267      -0.2082547      -0.3723027
P  11.0
An explanation of the orbital elements is available.

These orbital elements are also available in forms suitable for loading into a number of popular planetarium-type software programs.


Ephemeris

The following ephemeris is at intervals of five days. A daily ephemeris covering the same time interval is also available.

Personalized ephemerides for this (and other) objects may be generated using the Minor Planet & Comet Ephemeris Service.

Recent magnitude estimates for this comet (as reported to the ICQ) may be available.

Date    TT    R. A. (2000) Decl.     Delta      r     Elong.  Phase   m1    m2

WARNING!

This comet gets close to the sun during the period covered in the ephemeris below. Observers are warned to be wary of observing comets near the sun. NEVER point any kind of optical instrument at the sun--instant blindness will be the probable result.

2009 07 08 01 25.49 +10 37.3 5.778 5.729 82.1 10.1 20.8 2009 07 13 01 26.97 +10 47.9 5.702 5.730 86.5 10.2 20.7 2009 07 18 01 28.21 +10 57.2 5.624 5.732 90.9 10.2 20.7 2009 07 23 01 29.22 +11 05.0 5.547 5.733 95.4 10.2 20.7 2009 07 28 01 29.97 +11 11.4 5.470 5.734 100.0 10.0 20.6 2009 08 02 01 30.46 +11 16.4 5.395 5.736 104.6 9.9 20.6 2009 08 07 01 30.68 +11 19.8 5.321 5.737 109.3 9.6 20.6 2009 08 12 01 30.63 +11 21.6 5.249 5.738 114.1 9.3 20.5 2009 08 17 01 30.31 +11 21.8 5.180 5.740 119.0 8.9 20.5 2009 08 22 01 29.72 +11 20.4 5.114 5.741 124.0 8.4 20.4 2009 08 27 01 28.85 +11 17.4 5.052 5.742 129.0 7.9 20.4 2009 09 01 01 27.72 +11 12.8 4.995 5.743 134.1 7.2 20.3 2009 09 06 01 26.35 +11 06.7 4.942 5.744 139.3 6.6 20.3 2009 09 11 01 24.74 +10 59.0 4.895 5.745 144.5 5.8 20.2 2009 09 16 01 22.92 +10 50.0 4.854 5.746 149.9 5.0 20.1 2009 09 21 01 20.92 +10 39.6 4.820 5.747 155.3 4.2 20.1 2009 09 26 01 18.75 +10 28.1 4.792 5.748 160.7 3.3 20.0 2009 10 01 01 16.47 +10 15.6 4.772 5.749 166.2 2.4 20.0 2009 10 06 01 14.10 +10 02.3 4.759 5.750 171.6 1.5 19.9 2009 10 11 01 11.68 +09 48.4 4.753 5.750 176.7 0.6 19.8 2009 10 16 01 09.25 +09 34.2 4.756 5.751 176.3 0.6 19.8 2009 10 21 01 06.85 +09 19.9 4.766 5.752 171.1 1.5 19.9 2009 10 26 01 04.52 +09 05.8 4.784 5.753 165.6 2.5 20.0 2009 10 31 01 02.31 +08 52.1 4.810 5.753 160.1 3.4 20.0 2009 11 05 01 00.24 +08 39.0 4.843 5.754 154.6 4.2 20.1 2009 11 10 00 58.35 +08 26.7 4.883 5.754 149.0 5.1 20.2 2009 11 15 00 56.67 +08 15.6 4.929 5.755 143.6 5.9 20.2 2009 11 20 00 55.21 +08 05.7 4.982 5.755 138.1 6.6 20.3 2009 11 25 00 54.01 +07 57.2 5.040 5.756 132.8 7.2 20.3 2009 11 30 00 53.07 +07 50.2 5.103 5.756 127.4 7.8 20.4 2009 12 05 00 52.40 +07 44.8 5.171 5.757 122.2 8.3 20.4 2009 12 10 00 52.01 +07 41.2 5.242 5.757 117.0 8.8 20.5 2009 12 15 00 51.91 +07 39.2 5.317 5.757 111.9 9.1 20.5 2009 12 20 00 52.09 +07 39.0 5.395 5.758 106.9 9.4 20.6 2009 12 25 00 52.55 +07 40.5 5.474 5.758 101.9 9.6 20.6 2009 12 30 00 53.29 +07 43.8 5.555 5.758 97.0 9.8 20.7 2010 01 04 00 54.28 +07 48.6 5.637 5.758 92.1 9.8 20.7 2010 01 09 00 55.54 +07 55.1 5.719 5.758 87.4 9.8 20.7 2010 01 14 00 57.04 +08 03.2 5.801 5.759 82.7 9.8 20.8 2010 01 19 00 58.77 +08 12.7 5.881 5.759 78.0 9.6 20.8 2010 01 24 01 00.72 +08 23.6 5.961 5.759 73.5 9.4 20.8 2010 01 29 01 02.88 +08 35.9 6.038 5.759 69.0 9.2 20.8 2010 02 03 01 05.24 +08 49.3 6.113 5.758 64.5 8.9 20.8 2010 02 08 01 07.78 +09 03.8 6.186 5.758 60.1 8.5 20.8 2010 02 13 01 10.48 +09 19.4 6.255 5.758 55.8 8.2 20.9 2010 02 18 01 13.35 +09 35.9 6.321 5.758 51.5 7.7 20.9 2010 02 23 01 16.36 +09 53.3 6.383 5.758 47.3 7.2 20.9 2010 02 28 01 19.50 +10 11.4 6.441 5.758 43.1 6.7 20.9 2010 03 05 01 22.76 +10 30.2 6.495 5.757 38.9 6.2 20.8 2010 03 10 01 26.13 +10 49.5 6.544 5.757 34.8 5.6 20.8 2010 03 15 01 29.59 +11 09.4 6.589 5.757 30.7 5.1 20.8 2010 03 20 01 33.15 +11 29.7 6.628 5.756 26.7 4.5 20.8 2010 03 25 01 36.77 +11 50.3 6.663 5.756 22.7 3.8 20.8 2010 03 30 01 40.47 +12 11.1 6.692 5.755 18.7 3.2 20.7 2010 04 04 01 44.21 +12 32.1 6.716 5.755 14.8 2.5 20.7 2010 04 09 01 48.01 +12 53.2 6.735 5.754 10.9 1.9 20.7 2010 04 14 01 51.83 +13 14.4 6.748 5.754 7.1 1.2 20.6 2010 04 19 01 55.69 +13 35.6 6.755 5.753 3.4 0.6 20.6 2010 04 24 01 59.56 +13 56.6 6.757 5.752 1.9 0.3 20.5 2010 04 29 02 03.43 +14 17.5 6.754 5.752 5.0 0.9 20.6 2010 05 04 02 07.30 +14 38.3 6.745 5.751 8.8 1.5 20.6 2010 05 09 02 11.16 +14 58.7 6.731 5.750 12.6 2.2 20.7 2010 05 14 02 15.00 +15 18.9 6.712 5.749 16.4 2.8 20.7 2010 05 19 02 18.80 +15 38.7 6.687 5.749 20.2 3.5 20.8 2010 05 24 02 22.56 +15 58.0 6.657 5.748 24.1 4.1 20.8 2010 05 29 02 26.26 +16 17.0 6.623 5.747 27.9 4.7 20.8 2010 06 03 02 29.91 +16 35.4 6.583 5.746 31.8 5.3 20.8 2010 06 08 02 33.48 +16 53.3 6.539 5.745 35.7 5.9 20.8 2010 06 13 02 36.96 +17 10.7 6.490 5.744 39.5 6.5 20.9 2010 06 18 02 40.35 +17 27.4 6.437 5.743 43.5 7.0 20.9 2010 06 23 02 43.62 +17 43.5 6.380 5.742 47.4 7.5 20.9 2010 06 28 02 46.78 +17 58.9 6.320 5.740 51.4 8.0 20.9 2010 07 03 02 49.80 +18 13.6 6.255 5.739 55.4 8.4 20.9 2010 07 08 02 52.67 +18 27.6 6.188 5.738 59.4 8.8 20.8 2010 07 13 02 55.39 +18 40.8 6.117 5.737 63.5 9.1 20.8 2010 07 18 02 57.93 +18 53.2 6.044 5.735 67.6 9.4 20.8 2010 07 23 03 00.28 +19 04.7 5.969 5.734 71.8 9.7 20.8 2010 07 28 03 02.43 +19 15.4 5.892 5.733 76.1 9.9 20.8 2010 08 02 03 04.36 +19 25.1 5.813 5.731 80.4 10.1 20.8 2010 08 07 03 06.06 +19 34.0 5.734 5.730 84.7 10.2 20.7 2010 08 12 03 07.52 +19 41.8 5.653 5.728 89.1 10.2 20.7